1513746001.13,1515,5.81,73414.0,-16.39,-42.37,-42.25,0,*5E
1513746002.37,1516,5.81,73404.5,-16.39,-42.37,-42.37,0,*5E
1513746003.63,1517,5.81,73406.8,-16.41,-42.45,-42.45,0,*50
1513746004.89,1518,5.81,73408.0,-16.41,-42.45,-42.45,0,*5F
1513746006.14,1519,5.81,73408.3,-16.41,-42.45,-42.45,0,*5E
1513746007.39,1520,5.81,73408.8,-16.39,-42.75,-42.63,0,*5C
1513746008.67,1521,5.81,73408.5,-16.39,-42.57,-42.57,0,*5A
1513746009.94,1522,5.81,73408.8,-16.39,-42.75,-42.83,0,*50
1513746011.15,1523,5.81,73408.5,-16.41,-42.63,-42.63,0,*57
1513746012.44,1524,5.81,73406.3,-16.39,-42.57,-42.57,0,*5F
1513746013.7,1525,5.81,73414.3,-16.39,-42.57,-42.63,0,*59
1513746014.99,1526,5.81,73416.0,-16.39,-42.45,-42.45,0,*5D
1513746016.28,1527,5.81,73408.8,-16.39,-42.45,-42.45,0,*5C
1513746017.56,1528,5.81,73414.0,-16.39,-42.45,-42.45,0,*53
1513746018.8,1529,5.81,73408.3,-16.41,-42.63,-42.83,0,*53
1513746020.06,1530,5.81,73414.5,-16.39,-42.75,-42.83,0,*53
1513746021.33,1531,5.81,73408.5,-16.39,-42.57,-42.75,0,*5B
1513746022.57,1532,5.81,73410.8,-16.39,-42.63,-42.75,0,*5F
1513746023.81,1533,5.81,73412.0,-16.41,-42.63,-42.83,0,*58
1513746025.02,1534,5.81,73412.0,-16.41,-42.63,-42.75,0,*56
1513746026.24,1535,5.81,73414.5,-16.41,-42.63,-42.63,0,*50
1513746027.48,1536,5.81,73412.8,-16.41,-42.57,-42.63,0,*54
1513746028.7,1537,5.81,73412.3,-16.41,-42.63,-42.75,0,*55
1513746029.96,1538,5.81,73410.5,-16.41,-42.45,-42.45,0,*5D
1513746031.22,1539,5.81,73414.3,-16.43,-42.51,-42.45,0,*5B
1513746032.46,1540,5.81,73410.3,-16.41,-42.45,-42.63,0,*56
1513746033.7,1541,5.81,73410.8,-16.41,-42.45,-42.63,0,*57
1513746034.91,1542,5.81,73414.3,-16.41,-42.25,-42.37,0,*53
1513746036.16,1543,5.81,73414.3,-16.41,-42.45,-42.75,0,*52
1513746037.39,1544,5.81,73414.8,-16.41,-42.63,-42.83,0,*58
1513746038.66,1545,5.81,73410.0,-16.43,-42.69,-42.75,0,*58
1513746039.88,1546,5.81,73412.0,-16.41,-42.63,-42.75,0,*53
1513746041.13,1547,5.81,73410.5,-16.41,-42.57,-42.57,0,*55
1513746042.37,1548,5.81,73410.0,-16.43,-42.63,-42.51,0,*59
1513746043.59,1549,5.81,73410.0,-16.41,-42.75,-42.75,0,*5B
1513746044.81,1550,5.81,73408.5,-16.41,-42.63,-42.75,0,*54
1513746046.07,1551,5.81,73408.3,-16.43,-42.63,-42.69,0,*5A
1513746047.3,1552,5.81,73406.5,-16.41,-42.37,-42.57,0,*57
1513746048.59,1553,5.81,73410.5,-16.43,-42.69,-42.83,0,*56
1513746049.85,1554,5.81,73408.8,-16.43,-42.63,-42.57,0,*52
1513746051.13,1555,5.81,73410.5,-16.43,-42.69,-42.83,0,*50
1513746052.37,1556,5.81,73414.3,-16.41,-42.75,-42.83,0,*5C
1513746053.61,1557,5.81,73412.0,-16.41,-42.75,-42.83,0,*5D
1513746054.85,1558,5.81,73412.5,-16.41,-42.45,-42.63,0,*5F
1513746056.11,1559,5.81,73412.3,-16.43,-42.51,-42.69,0,*53
1513746057.35,1560,5.81,73416.3,-16.43,-42.89,-42.89,0,*52
1513746058.61,1561,5.81,73414.8,-16.41,-42.45,-42.57,0,*52
1513746059.85,1562,5.81,73408.3,-16.43,-42.51,-42.51,0,*50
1513746061.13,1563,5.81,73412.5,-16.43,-42.45,-42.45,0,*51
1513746062.39,1564,5.81,73414.3,-16.43,-42.45,-42.37,0,*53
1513746063.63,1565,5.81,73414.3,-16.41,-42.57,-42.63,0,*52
1513746064.89,1566,5.81,73418.0,-16.41,-42.45,-42.45,0,*56
1513746066.13,1567,5.81,73412.0,-16.41,-42.57,-42.63,0,*50
1513746067.37,1568,5.81,73416.3,-16.41,-42.75,-42.83,0,*51
1513746068.59,1569,5.81,73418.3,-16.41,-42.63,-42.75,0,*5E
1513746069.87,1570,5.81,73418.0,-16.43,-42.83,-42.83,0,*53
1513746071.16,1571,5.81,73414.3,-16.43,-42.69,-42.69,0,*52
1513746072.38,1572,5.81,73418.3,-16.41,-42.75,-42.63,0,*54
1513746073.64,1573,5.81,73416.3,-16.43,-42.83,-42.89,0,*5A
1513746074.88,1574,5.81,73416.5,-16.43,-42.51,-42.51,0,*57
1513746076.16,1575,5.81,73414.8,-16.43,-42.83,-42.83,0,*56
1513746077.37,1576,5.81,73416.0,-16.41,-42.89,-42.89,0,*57
1513746078.66,1577,5.81,73416.3,-16.43,-42.69,-42.69,0,*54
1513746079.94,1578,5.81,73412.5,-16.43,-42.69,-42.83,0,*5F
1513746081.23,1579,5.81,73416.8,-16.43,-42.69,-42.83,0,*5E
1513746082.49,1580,5.81,73414.3,-16.43,-42.63,-42.69,0,*56
1513746083.78,1581,5.81,73414.0,-16.43,-42.69,-42.83,0,*59
1513746085.01,1582,5.81,73414.3,-16.41,-42.75,-42.83,0,*55
1513746086.25,1583,5.81,73416.8,-16.43,-42.89,-42.89,0,*5F
1513746087.53,1584,5.81,73418.5,-16.43,-42.83,-42.83,0,*58
1513746088.77,1585,5.81,73414.8,-16.41,-42.57,-42.75,0,*5B
1513746090.04,1586,5.81,73414.8,-16.43,-42.63,-42.69,0,*50
1513746091.3,1587,5.81,73418.0,-16.43,-42.63,-42.69,0,*51
1513746092.54,1588,5.81,73418.3,-16.43,-42.63,-42.63,0,*54
1513746093.8,1589,5.81,73414.3,-16.43,-42.51,-42.69,0,*5E
1513746095.06,1590,5.81,73412.5,-16.45,-42.69,-42.83,0,*5F
1513746096.32,1591,5.81,73414.0,-16.43,-42.63,-42.69,0,*56
1513746097.61,1592,5.81,73412.8,-16.43,-42.69,-42.69,0,*5F
1513746098.87,1593,5.81,73418.3,-16.43,-42.95,-42.89,0,*53
1513746100.17,1594,5.81,73418.3,-16.43,-42.95,-42.95,0,*59
1513746101.41,1595,5.81,73418.0,-16.43,-42.63,-42.63,0,*58
1513746102.63,1596,5.81,73416.3,-16.41,-42.51,-42.51,0,*59
1513746103.86,1597,5.81,73410.8,-16.45,-42.63,-42.69,0,*56
1513746105.1,1598,5.81,73416.8,-16.45,-42.83,-42.89,0,*59
1513746106.37,1599,5.81,73412.3,-16.49,-42.69,-42.95,0,*5D
1513746107.63,1600,5.81,73414.0,-16.45,-42.83,-42.95,0,*56
1513746108.86,1601,5.81,73412.0,-16.45,-42.83,-42.89,0,*5A
1513746110.12,1602,5.81,73412.3,-16.45,-42.69,-42.69,0,*53
1513746111.34,1603,5.81,73416.5,-16.49,-42.89,-42.75,0,*5D
1513746112.6,1604,5.81,73416.0,-16.45,-42.69,-42.69,0,*55
1513746113.84,1605,5.81,73418.3,-16.45,-42.95,-42.89,0,*59
1513746115.05,1606,5.81,73418.8,-16.45,-42.89,-42.89,0,*57
1513746116.26,1607,5.81,73414.3,-16.45,-42.63,-42.63,0,*56
1513746117.5,1608,5.81,73416.0,-16.49,-42.63,-42.69,0,*5F
1513746118.76,1609,5.81,73418.8,-16.45,-42.83,-42.83,0,*58
1513746120.0,1610,5.81,73416.0,-16.49,-42.57,-42.75,0,*5C
1513746121.22,1611,5.81,73420.0,-16.49,-42.75,-42.75,0,*5D
1513746122.43,1612,5.81,73416.5,-16.45,-42.89,-42.89,0,*52
1513746123.68,1613,5.81,73420.8,-16.45,-42.83,-42.69,0,*57
1513746124.93,1614,5.81,73418.8,-16.49,-42.75,-42.95,0,*56
1513746126.17,1615,5.81,73412.8,-16.49,-42.57,-42.75,0,*59
1513746127.4,1616,5.81,73422.8,-16.45,-42.69,-42.89,0,*58
1513746128.64,1617,5.81,73418.3,-16.45,-42.69,-42.89,0,*59
1513746129.88,1618,5.81,73416.5,-16.45,-42.89,-42.95,0,*55
1513746131.12,1619,5.81,73416.8,-16.45,-42.89,-42.95,0,*54
1513746132.36,1620,5.81,73418.5,-16.49,-42.95,-43.01,0,*53
1513746133.6,1621,5.81,73414.5,-16.45,-42.95,-42.89,0,*5F
1513746134.82,1622,5.81,73422.0,-16.49,-42.75,-42.89,0,*5E
1513746136.06,1623,5.81,73416.0,-16.49,-42.89,-42.95,0,*51
1513746137.3,1624,5.81,73418.8,-16.49,-42.89,-42.95,0,*56
1513746138.54,1625,5.81,73418.5,-16.45,-42.69,-42.89,0,*58
1513746139.8,1626,5.81,73416.3,-16.49,-42.57,-42.57,0,*59
1513746141.03,1627,5.81,73418.8,-16.45,-42.63,-42.69,0,*5E
1513746142.27,1628,5.81,73412.5,-16.49,-42.89,-42.95,0,*5A
1513746143.49,1629,5.81,73416.3,-16.49,-42.75,-42.89,0,*55
1513746144.73,1630,5.81,73418.0,-16.49,-42.69,-42.75,0,*53
1513746145.95,1631,5.81,73414.3,-16.49,-42.75,-42.75,0,*5F
1513746147.17,1632,5.81,73416.0,-16.49,-42.75,-42.75,0,*5C
1513746148.39,1633,5.81,73414.3,-16.49,-42.75,-42.75,0,*5D
1513746149.63,1634,5.81,73414.5,-16.49,-42.69,-42.75,0,*57
1513746150.89,1635,5.81,73414.8,-16.49,-42.57,-42.69,0,*56
1513746152.13,1636,5.81,73416.8,-16.49,-42.57,-42.75,0,*58
1513746153.38,1637,5.81,73418.3,-16.49,-42.69,-42.75,0,*54
1513746154.62,1638,5.81,73414.0,-16.49,-42.89,-42.95,0,*5B
1513746155.88,1639,5.81,73414.0,-16.49,-42.57,-42.69,0,*5A
1513746157.12,1640,5.81,73412.8,-16.49,-42.57,-42.51,0,*5F
1513746158.36,1641,5.81,73414.8,-16.49,-42.57,-42.75,0,*58
1513746159.57,1642,5.81,73418.8,-16.45,-42.63,-42.51,0,*56
1513746160.81,1643,5.81,73412.0,-16.49,-42.69,-42.75,0,*57
1513746162.03,1644,5.81,73416.0,-16.49,-42.51,-42.63,0,*5C
1513746163.29,1645,5.81,73414.3,-16.49,-42.57,-42.57,0,*5C
1513746164.5,1646,5.81,73412.5,-16.45,-42.63,-42.51,0,*52
1513746165.71,1647,5.81,73414.5,-16.45,-42.75,-42.89,0,*51
1513746166.97,1648,5.81,73410.8,-16.49,-42.57,-42.69,0,*5C
1513746168.19,1649,5.81,73408.5,-16.49,-42.75,-42.75,0,*50
1513746169.44,1650,5.81,73406.8,-16.49,-42.75,-42.95,0,*56
1513746170.68,1651,5.81,73404.8,-16.49,-42.89,-42.95,0,*54
1513746171.92,1652,5.81,73408.8,-16.51,-42.75,-42.89,0,*50
1513746173.18,1653,5.81,73406.8,-16.51,-42.57,-42.89,0,*51
1513746174.42,1654,5.81,73406.0,-16.49,-42.69,-42.75,0,*51
1513746175.66,1655,5.81,73410.8,-16.49,-42.69,-42.89,0,*53
1513746176.91,1656,5.81,73408.3,-16.49,-42.69,-42.75,0,*53
1513746178.15,1657,5.81,73408.5,-16.49,-42.57,-42.75,0,*5F
1513746179.43,1658,5.81,73408.5,-16.51,-42.57,-42.57,0,*59
1513746180.72,1659,5.81,73408.8,-16.51,-42.57,-42.57,0,*58
1513746181.96,1660,5.81,73404.8,-16.49,-42.37,-42.31,0,*5D
1513746183.2,1661,5.81,73410.0,-16.49,-42.37,-42.31,0,*5C
1513746184.45,1662,5.81,73410.3,-16.49,-42.37,-42.31,0,*5F
1513746185.66,1663,5.81,73412.0,-16.49,-42.51,-42.51,0,*58
1513746186.9,1664,5.81,73408.3,-16.49,-42.51,-42.57,0,*59
1513746188.17,1665,5.81,73410.5,-16.49,-42.31,-42.31,0,*5E
1513746189.44,1666,5.81,73410.8,-16.49,-42.19,-42.31,0,*57
1513746190.72,1667,5.81,73412.8,-16.51,-42.13,-42.19,0,*5F
1513746191.95,1668,5.81,73412.5,-16.51,-41.99,-42.13,0,*5B
1513746193.22,1669,5.81,73410.5,-16.49,-41.93,-41.81,0,*51
1513746194.45,1670,5.81,73410.5,-16.45,-41.87,-41.93,0,*53
1513746195.71,1671,5.81,73414.3,-16.49,-41.93,-41.93,0,*5B
1513746196.95,1672,5.81,73412.0,-16.49,-41.81,-41.73,0,*55
1513746198.19,1673,5.81,73414.8,-16.49,-41.67,-41.73,0,*5C
1513746199.46,1674,5.81,73412.0,-16.49,-41.55,-41.67,0,*5F
1513746200.7,1675,5.81,73412.0,-16.49,-41.29,-41.55,0,*54
1513746201.94,1676,5.81,73414.0,-16.49,-41.29,-41.35,0,*51
1513746203.15,1677,5.81,73412.5,-16.49,-41.29,-41.29,0,*5D
1513746204.36,1678,5.81,73412.8,-16.45,-41.11,-41.29,0,*55
1513746205.6,1679,5.81,73412.0,-16.49,-41.17,-41.35,0,*53
1513746206.81,1680,5.81,73408.3,-16.49,-41.11,-41.29,0,*5E
1513746208.06,1681,5.81,73414.3,-16.49,-40.91,-40.97,0,*52
1513746209.33,1682,5.81,73414.8,-16.49,-40.79,-40.97,0,*57
1513746210.54,1683,5.81,73412.8,-16.49,-40.73,-41.11,0,*53
1513746211.78,1684,5.81,73410.0,-16.45,-40.41,-40.53,0,*5E
1513746212.99,1685,5.81,73408.0,-16.49,-40.47,-40.73,0,*57
1513746214.26,1686,5.81,73414.3,-16.49,-40.29,-40.59,0,*54
1513746215.5,1687,5.81,73416.3,-16.49,-40.09,-40.53,0,*5D
1513746216.74,1688,5.81,73412.8,-16.49,-40.09,-40.35,0,*52
1513746218.01,1689,5.81,73414.3,-16.45,-39.71,-40.29,0,*53
1513746219.25,1690,5.81,73416.3,-16.49,-39.79,-40.35,0,*52
1513746220.52,1691,5.81,73412.5,-16.45,-39.71,-40.29,0,*5A
1513746221.78,1692,5.81,73418.5,-16.45,-39.53,-40.09,0,*5B
1513746223.05,1693,5.81,73418.3,-16.49,-39.53,-40.09,0,*56
1513746224.28,1694,5.81,73416.5,-16.45,-39.29,-40.03,0,*5A
1513746225.52,1695,5.81,73414.0,-16.49,-39.15,-39.91,0,*5D
1513746226.8,1696,5.81,73416.0,-16.49,-39.15,-39.79,0,*58
1513746228.01,1697,5.81,73414.5,-16.45,-38.85,-39.65,0,*50
1513746229.25,1698,5.81,73416.3,-16.45,-38.85,-39.53,0,*5A
1513746230.49,1699,5.81,73408.5,-16.45,-38.85,-39.71,0,*5B
1513746231.74,1700,5.81,73408.8,-16.45,-38.67,-39.53,0,*56
1513746232.98,1701,5.81,73412.5,-16.45,-38.61,-39.59,0,*5B
1513746234.21,1702,5.81,73412.0,-16.49,-38.35,-39.29,0,*52
1513746235.41,1703,5.81,73416.3,-16.45,-38.35,-39.35,0,*52
1513746236.61,1704,5.81,73414.5,-16.45,-38.35,-39.35,0,*55
1513746237.84,1705,5.81,73416.5,-16.45,-38.17,-39.29,0,*59
1513746239.1,1706,5.81,73412.3,-16.45,-38.11,-39.15,0,*53
1513746240.33,1707,5.81,73414.5,-16.45,-38.17,-39.29,0,*5B
1513746241.59,1708,5.81,73412.3,-16.45,-37.93,-39.29,0,*57
1513746242.84,1709,5.81,73408.0,-16.43,-37.99,-39.35,0,*57
1513746244.13,1710,5.81,73412.8,-16.43,-38.29,-39.53,0,*5B
1513746245.41,1711,5.81,73412.0,-16.43,-38.29,-39.53,0,*5A
1513746246.67,1712,5.81,73412.8,-16.45,-38.11,-39.29,0,*59
1513746247.93,1713,5.81,73410.0,-16.45,-37.93,-39.15,0,*52
1513746249.16,1714,5.81,73410.3,-16.43,-37.75,-39.09,0,*56
1513746250.4,1715,5.81,73408.0,-16.41,-37.87,-39.23,0,*50
1513746251.64,1716,5.81,73414.0,-16.41,-38.05,-39.41,0,*52
1513746252.84,1717,5.81,73418.3,-16.41,-38.17,-39.47,0,*56
1513746254.12,1718,5.81,73414.0,-16.43,-37.93,-39.29,0,*50
1513746255.38,1719,5.81,73414.0,-16.43,-37.93,-39.35,0,*5C
1513746256.58,1720,5.81,73412.5,-16.41,-38.05,-39.47,0,*51
1513746257.85,1721,5.81,73422.0,-16.43,-37.87,-39.29,0,*5F
1513746259.08,1722,5.81,73416.8,-16.43,-37.87,-39.35,0,*51
1513746260.31,1723,5.81,73418.5,-16.41,-37.93,-39.47,0,*52
1513746261.59,1724,5.81,73412.5,-16.43,-38.11,-39.53,0,*57
1513746262.87,1725,5.81,73412.3,-16.43,-38.11,-39.53,0,*56
1513746264.11,1726,5.81,73412.3,-16.41,-38.11,-39.65,0,*52
1513746265.39,1727,5.81,73416.3,-16.43,-38.11,-39.53,0,*54
1513746266.62,1728,5.81,73420.0,-16.43,-38.35,-39.91,0,*53
1513746267.86,1729,5.81,73418.5,-16.41,-38.23,-39.85,0,*52
1513746269.12,1730,5.81,73418.0,-16.43,-38.35,-40.09,0,*55
1513746270.38,1731,5.81,73410.0,-16.43,-38.29,-40.03,0,*53
1513746271.59,1732,5.81,73408.8,-16.41,-38.43,-40.03,0,*5E
1513746272.8,1733,5.81,73412.3,-16.41,-38.61,-40.03,0,*5F
1513746274.04,1734,5.81,73418.0,-16.41,-38.49,-40.15,0,*55
1513746275.28,1735,5.81,73418.3,-16.41,-38.61,-40.21,0,*59
1513746276.52,1736,5.81,73416.3,-16.43,-38.73,-40.47,0,*5B
1513746277.75,1737,5.81,73414.5,-16.41,-38.67,-40.35,0,*58
1513746278.99,1738,5.81,73418.5,-16.41,-38.67,-40.15,0,*55
1513746280.25,1739,5.81,73418.0,-16.43,-38.73,-40.21,0,*54
1513746281.49,1740,5.81,73416.0,-16.41,-38.79,-40.15,0,*55
1513746282.76,1741,5.81,73418.5,-16.41,-38.79,-40.21,0,*53
1513746284.05,1742,5.81,73416.8,-16.43,-38.91,-40.41,0,*52
1513746285.29,1743,5.81,73414.8,-16.41,-39.03,-40.47,0,*5D
1513746286.55,1744,5.81,73414.8,-16.41,-39.29,-40.59,0,*5D
1513746287.82,1745,5.81,73412.3,-16.41,-39.41,-40.59,0,*52
1513746289.09,1746,5.81,73410.3,-16.39,-39.41,-40.65,0,*51
1513746290.33,1747,5.81,73414.3,-16.41,-39.41,-40.65,0,*5F
1513746291.57,1748,5.81,73416.5,-16.41,-39.41,-40.47,0,*50
1513746292.84,1749,5.81,73414.3,-16.41,-39.41,-40.59,0,*5E
1513746294.11,1750,5.81,73414.8,-16.41,-39.59,-40.79,0,*5D
1513746295.37,1751,5.81,73418.3,-16.43,-39.53,-40.65,0,*59
1513746296.61,1752,5.81,73414.8,-16.41,-39.41,-40.47,0,*5B
1513746297.88,1753,5.81,73414.3,-16.41,-39.59,-40.59,0,*5C
1513746299.1,1754,5.81,73418.8,-16.41,-39.47,-40.47,0,*5B
1513746300.35,1755,5.81,73416.8,-16.41,-39.85,-40.85,0,*5A
1513746301.57,1756,5.81,73418.3,-16.41,-40.03,-41.03,0,*56
1513746302.82,1757,5.81,73416.3,-16.41,-39.85,-40.85,0,*58
1513746304.08,1758,5.81,73416.0,-16.41,-39.97,-40.79,0,*57
1513746305.31,1759,5.81,73416.3,-16.41,-39.97,-40.65,0,*5B
1513746306.58,1760,5.81,73418.3,-16.41,-39.97,-40.85,0,*5F
1513746307.82,1761,5.81,73422.3,-16.41,-40.03,-40.85,0,*5D
1513746309.06,1762,5.81,73418.5,-16.41,-40.03,-40.79,0,*5D
1513746310.28,1763,5.81,73410.0,-16.41,-40.15,-41.17,0,*52
1513746311.52,1764,5.81,73414.5,-16.41,-40.03,-40.85,0,*58
1513746312.77,1765,5.81,73410.0,-16.41,-40.09,-41.03,0,*5C
1513746314.01,1766,5.81,73416.8,-16.41,-40.35,-41.23,0,*52
1513746315.22,1767,5.81,73418.5,-16.41,-40.35,-41.17,0,*54
1513746316.45,1768,5.81,73414.0,-16.41,-40.15,-41.03,0,*5C
1513746317.72,1769,5.81,73414.8,-16.41,-40.41,-41.35,0,*59
1513746318.96,1770,5.81,73416.3,-16.41,-40.35,-41.35,0,*52
1513746320.2,1771,5.81,73416.8,-16.41,-40.59,-41.41,0,*5A
1513746321.43,1772,5.81,73416.5,-16.43,-40.53,-41.41,0,*51
1513746322.67,1773,5.81,73414.5,-16.41,-40.21,-41.17,0,*54
1513746323.96,1774,5.81,73416.0,-16.43,-40.41,-41.23,0,*50
1513746325.2,1775,5.81,73416.0,-16.41,-40.47,-41.35,0,*52
1513746326.47,1776,5.81,73418.3,-16.41,-40.59,-41.55,0,*58
1513746327.68,1777,5.81,73418.3,-16.41,-40.47,-41.41,0,*53
1513746328.91,1778,5.81,73418.0,-16.43,-40.73,-41.61,0,*5B
1513746330.14,1779,5.81,73416.0,-16.43,-40.65,-41.61,0,*5D
1513746331.38,1780,5.81,73420.0,-16.41,-40.59,-41.41,0,*54
1513746332.64,1781,5.81,73418.5,-16.41,-40.41,-41.35,0,*5F
1513746333.87,1782,5.81,73422.5,-16.41,-40.79,-41.61,0,*56
1513746335.14,1783,5.81,73420.5,-16.41,-40.59,-41.55,0,*52
1513746336.35,1784,5.81,73416.0,-16.41,-40.47,-41.41,0,*5F
1513746337.56,1785,5.81,73416.8,-16.41,-40.47,-41.61,0,*5C
1513746338.83,1786,5.81,73420.0,-16.41,-40.59,-41.55,0,*57
1513746340.09,1787,5.81,73422.0,-16.41,-40.79,-41.67,0,*55
1513746341.35,1788,5.81,73422.3,-16.41,-40.59,-41.55,0,*59
1513746342.59,1789,5.81,73422.3,-16.41,-40.65,-41.67,0,*56
1513746343.8,1790,5.81,73418.8,-16.41,-40.47,-41.61,0,*58
1513746345.04,1791,5.81,73422.3,-16.41,-40.47,-41.55,0,*5E
1513746346.29,1792,5.81,73416.0,-16.39,-40.65,-41.81,0,*5B
1513746347.58,1793,5.81,73412.8,-16.39,-40.59,-41.81,0,*55
1513746348.87,1794,5.81,73418.0,-16.39,-40.59,-41.67,0,*5A
1513746350.14,1795,5.81,73418.3,-16.41,-40.59,-41.67,0,*54
1513746351.37,1796,5.81,73420.0,-16.39,-40.65,-41.87,0,*59
1513746352.61,1797,5.81,73416.0,-16.39,-40.65,-41.87,0,*58
1513746353.87,1798,5.81,73420.3,-16.39,-40.59,-41.99,0,*57
1513746355.11,1799,5.81,73418.0,-16.39,-40.47,-41.87,0,*56
1513746356.34,1800,5.81,73420.8,-16.41,-40.47,-41.81,0,*50
1513746357.61,1801,5.81,73422.0,-16.39,-40.35,-41.67,0,*53
1513746358.9,1802,5.81,73422.5,-16.39,-40.21,-41.67,0,*55
1513746360.14,1803,5.81,73418.8,-16.37,-40.09,-41.73,0,*55
1513746361.38,1804,5.81,73422.0,-16.39,-40.35,-41.87,0,*58
1513746362.64,1805,5.81,73420.5,-16.39,-40.21,-41.87,0,*5C
1513746363.88,1806,5.81,73422.8,-16.37,-40.15,-41.93,0,*53
1513746365.12,1807,5.81,73424.3,-16.39,-40.03,-41.87,0,*5E
1513746366.4,1808,5.81,73426.8,-16.39,-39.85,-41.67,0,*5F
1513746367.64,1809,5.81,73424.0,-16.39,-39.65,-41.61,0,*56
1513746368.88,1810,5.81,73424.8,-16.39,-39.65,-41.61,0,*5E
1513746370.15,1811,5.81,73424.3,-16.39,-39.65,-41.81,0,*51
1513746371.39,1812,5.81,73422.5,-16.39,-39.65,-41.87,0,*54
1513746372.61,1813,5.81,73420.8,-16.37,-39.47,-41.61,0,*53
1513746373.9,1814,5.81,73422.3,-16.39,-39.23,-41.55,0,*5F
1513746375.2,1815,5.81,73420.8,-16.39,-39.41,-41.67,0,*5B
1513746376.45,1816,5.81,73424.0,-16.39,-39.09,-41.41,0,*50
1513746377.69,1817,5.81,73430.8,-16.39,-39.09,-41.61,0,*53
1513746378.93,1818,5.81,73424.3,-16.39,-38.97,-41.41,0,*58
1513746380.14,1819,5.81,73424.0,-16.37,-38.73,-41.41,0,*5D
1513746381.38,1820,5.81,73426.8,-16.39,-38.85,-41.41,0,*50
1513746382.63,1821,5.81,73424.5,-16.41,-38.49,-41.03,0,*58
1513746383.88,1822,5.81,73424.0,-16.41,-38.43,-40.85,0,*5E
1513746385.15,1823,5.81,73424.3,-16.41,-38.29,-40.97,0,*50
1513746386.39,1824,5.81,73428.0,-16.41,-37.93,-40.65,0,*54
1513746387.63,1825,5.81,73426.8,-16.41,-38.05,-40.59,0,*5A
1513746388.88,1826,5.81,73428.5,-16.41,-37.87,-40.59,0,*5C
1513746390.13,1827,5.81,73428.3,-16.41,-37.81,-40.47,0,*54
1513746391.39,1828,5.81,73430.0,-16.39,-37.69,-40.47,0,*52
1513746392.62,1829,5.81,73426.3,-16.37,-37.63,-40.35,0,*52
1513746393.92,1830,5.81,73424.8,-16.39,-37.51,-40.41,0,*56
1513746395.18,1831,5.81,73422.3,-16.39,-37.63,-40.15,0,*57
1513746396.45,1832,5.81,73426.5,-16.39,-37.63,-40.35,0,*56
1513746397.74,1833,5.81,73424.0,-16.39,-37.63,-40.41,0,*54
1513746399.0,1834,5.81,73424.8,-16.39,-37.63,-40.35,0,*50
1513746400.24,1835,5.81,73426.3,-16.39,-37.45,-40.03,0,*50
1513746401.47,1836,5.81,73426.3,-16.39,-37.33,-40.03,0,*52
1513746402.74,1837,5.81,73426.0,-16.39,-37.15,-39.79,0,*54
1513746403.98,1838,5.81,73430.3,-16.39,-37.15,-39.85,0,*58
1513746405.24,1839,5.81,73430.0,-16.39,-37.15,-39.79,0,*5A
1513746406.51,1840,5.81,73428.8,-16.39,-37.15,-39.79,0,*54
1513746407.78,1841,5.81,73430.3,-16.39,-36.97,-39.59,0,*5C
1513746409.01,1842,5.81,73434.3,-16.39,-36.97,-39.47,0,*50
1513746410.27,1843,5.81,73428.5,-16.37,-36.91,-39.53,0,*5C
1513746411.53,1844,5.81,73428.5,-16.39,-36.91,-39.47,0,*50
1513746412.79,1845,5.81,73428.3,-16.39,-36.97,-39.59,0,*58
1513746414.05,1846,5.81,73430.3,-16.39,-36.91,-39.47,0,*52
1513746415.34,1847,5.81,73432.5,-16.39,-36.79,-39.29,0,*5D
1513746416.6,1848,5.81,73430.0,-16.37,-36.61,-39.15,0,*5A
1513746417.83,1849,5.81,73428.0,-16.37,-36.73,-39.23,0,*5D
1513746419.09,1850,5.81,73426.0,-16.39,-36.97,-39.41,0,*55
1513746420.38,1851,5.81,73428.0,-16.39,-36.79,-39.29,0,*5A
1513746421.66,1852,5.81,73432.8,-16.39,-36.79,-39.23,0,*53
1513746422.92,1853,5.81,73432.0,-16.39,-36.79,-39.09,0,*5A
1513746424.21,1854,5.81,73430.3,-16.39,-36.91,-39.29,0,*59
1513746425.5,1855,5.81,73430.5,-16.39,-36.91,-39.23,0,*52
1513746426.79,1856,5.81,73430.5,-16.39,-36.91,-39.23,0,*51
1513746428.05,1857,5.81,73430.0,-16.39,-36.79,-39.09,0,*5E
1513746429.28,1858,5.81,73430.0,-16.37,-36.73,-39.03,0,*5F
1513746430.49,1859,5.81,73428.5,-16.37,-36.73,-38.97,0,*52
1513746431.72,1860,5.81,73428.8,-16.37,-36.67,-39.03,0,*51
1513746433.01,1861,5.81,73428.5,-16.39,-36.79,-39.03,0,*51
1513746434.27,1862,5.81,73430.3,-16.39,-36.91,-39.09,0,*5E
1513746435.51,1863,5.81,73434.5,-16.37,-36.85,-39.03,0,*5E
1513746436.75,1864,5.81,73434.3,-16.39,-36.97,-39.09,0,*5E
1513746438.02,1865,5.81,73428.8,-16.39,-37.09,-39.09,0,*59
1513746439.28,1866,5.81,73430.0,-16.39,-36.97,-39.03,0,*56
1513746440.52,1867,5.81,73428.3,-16.37,-36.85,-38.91,0,*50
1513746441.78,1868,5.81,73428.0,-16.39,-36.91,-38.97,0,*52
1513746443.05,1869,5.81,73426.0,-16.39,-36.79,-38.85,0,*56
1513746444.31,1870,5.81,73426.3,-16.39,-36.97,-39.03,0,*51
1513746445.57,1871,5.81,73424.0,-16.39,-36.97,-39.03,0,*50
1513746446.84,1872,5.81,73430.8,-16.39,-36.91,-38.85,0,*5A
1513746448.1,1873,5.81,73430.5,-16.39,-36.97,-39.03,0,*52
1513746449.34,1874,5.81,73430.5,-16.39,-37.15,-38.97,0,*52
1513746450.58,1875,5.81,73432.3,-16.39,-36.97,-38.85,0,*5B
1513746451.85,1876,5.81,73430.3,-16.39,-37.09,-38.97,0,*5D
1513746453.13,1877,5.81,73428.8,-16.39,-37.09,-39.03,0,*50
1513746454.38,1878,5.81,73430.3,-16.39,-36.97,-38.85,0,*56
1513746455.67,1879,5.81,73430.0,-16.39,-36.91,-38.79,0,*52
1513746456.9,1880,5.81,73428.8,-16.37,-36.91,-38.73,0,*50
1513746458.14,1881,5.81,73430.8,-16.39,-36.97,-38.97,0,*53
1513746459.41,1882,5.81,73430.8,-16.39,-37.09,-38.97,0,*56
1513746460.67,1883,5.81,73426.8,-16.39,-37.09,-38.97,0,*57
1513746461.91,1884,5.81,73424.8,-16.37,-36.85,-38.79,0,*5B
1513746463.15,1885,5.81,73426.0,-16.37,-36.73,-38.79,0,*53
1513746464.38,1886,5.81,73426.5,-16.39,-37.15,-38.97,0,*5F
1513746465.62,1887,5.81,73426.8,-16.37,-36.85,-38.79,0,*58
1513746466.91,1888,5.81,73426.8,-16.39,-36.79,-38.67,0,*55
1513746468.18,1889,5.81,73424.5,-16.39,-36.91,-38.85,0,*5E
1513746469.41,1890,5.81,73424.0,-16.37,-36.91,-38.61,0,*52
1513746470.68,1891,5.81,73426.5,-16.39,-36.79,-38.85,0,*51
1513746471.92,1892,5.81,73424.0,-16.37,-36.73,-38.79,0,*55
1513746473.15,1893,5.81,73426.3,-16.37,-36.49,-38.43,0,*54
1513746474.39,1894,5.81,73422.0,-16.37,-36.49,-38.35,0,*52
1513746475.63,1895,5.81,73426.3,-16.37,-36.49,-38.61,0,*52
1513746476.84,1896,5.81,73424.5,-16.37,-36.43,-38.43,0,*5B
1513746478.06,1897,5.81,73426.3,-16.37,-36.31,-38.43,0,*5F
1513746479.28,1898,5.81,73424.5,-16.37,-36.61,-38.73,0,*56
1513746480.54,1899,5.81,73424.8,-16.37,-36.61,-38.91,0,*5B
1513746481.78,1900,5.81,73424.0,-16.37,-36.85,-39.03,0,*5A
1513746483.04,1901,5.81,73426.0,-16.35,-36.85,-39.03,0,*59
1513746484.27,1902,5.81,73424.5,-16.37,-36.67,-39.03,0,*54
1513746485.53,1903,5.75,73420.3,-16.37,-36.61,-39.03,0,*53
1513746486.76,1904,5.81,73424.5,-16.37,-36.67,-39.03,0,*52
1513746487.99,1905,5.81,73424.5,-16.37,-36.91,-39.35,0,*5F
1513746489.22,1906,5.81,73422.3,-16.37,-36.43,-38.91,0,*5C
1513746490.46,1907,5.81,73424.3,-16.37,-36.85,-39.23,0,*5F
1513746491.69,1908,5.81,73426.0,-16.37,-37.03,-39.53,0,*58
1513746492.94,1909,5.81,73426.8,-16.37,-36.91,-39.41,0,*50
1513746494.19,1910,5.81,73430.3,-16.37,-36.79,-39.23,0,*5A
1513746495.48,1911,5.81,73428.5,-16.35,-36.49,-39.15,0,*5F
1513746496.77,1912,5.81,73422.5,-16.35,-36.61,-39.15,0,*56
1513746497.97,1913,5.81,73420.3,-16.33,-36.67,-39.35,0,*55
1513746499.23,1914,5.81,73420.8,-16.35,-37.03,-39.71,0,*57
1513746500.45,1915,5.81,73424.5,-16.33,-37.15,-39.91,0,*59
1513746501.71,1916,5.81,73424.8,-16.35,-37.03,-39.71,0,*55
1513746502.92,1917,5.81,73426.3,-16.33,-36.85,-39.65,0,*58
1513746504.13,1918,5.81,73426.8,-16.33,-37.15,-40.03,0,*51
1513746505.37,1919,5.81,73424.0,-16.35,-37.27,-39.91,0,*52
1513746506.58,1920,5.81,73418.3,-16.33,-36.97,-39.65,0,*5F
1513746507.79,1921,5.81,73420.8,-16.33,-36.97,-39.85,0,*50